Погода в Октябрьском

Россия / Вологодская область     61°22′53″N   36°38′09″E
темп.,
°C
ветер,
м/с
пор.,
м/с
влажн.,
%
обл.,
%
осадки,
мм/ч
давл.,
гПа
погр.,
м
14 апреля, ср
ср1400:00+6ююв25100100 0.0 101986
03:00+7ююв25100100 0.0 1017106
06:00+7ююв2410093 1.6 101697
09:00+7з14100100 2.4 1014185
12:00+5ссз2598100 1.4 1016277
15:00+4сз3697100 2.6 1018472
18:00+4з1388100 0.1 1019297
21:00+2зюз1296100 0.1 102158
15 апреля, чт
чт1500:00+1сз2496100 0.0 102295
03:000с289376 0.0 1025227
06:00−1с289391 0.0 1026248
09:00+3ссв357140 0.0 1028561
12:00+6ссв35510 0.0 10291157
15:00+6ссв45450 0.0 10301332
18:00+5ссв36570 0.0 1030671
21:00+1св24750 0.0 103265
16 апреля, пт
пт1600:00−1всв22735 0.0 103227
03:00−1всв117042 0.0 103315
06:00−1в11675 0.0 103313
09:00+5с01475 0.0 1033394
12:00+7ссз22435 0.0 1033871
15:00+9с23477 0.0 10331035
18:00+8с24636 0.0 1032256
21:00+3св12805 0.0 103410
17 апреля, сб
сб1700:00+2св22845 0.0 103419
03:00+1св22855 0.0 103512
06:00+1св228321 0.0 103639
09:00+6ссв24665 0.0 1035375
12:00+10ссв235113 0.0 10361076
15:00+11с244710 0.0 10361502
18:00+10с23565 0.0 1035641
21:00+5ссв11745 0.0 103510
18 апреля, вс
вс1800:00+4св11795 0.0 103610
03:00+3в01835 0.0 103610
06:00+2ю11845 0.0 103610
09:00+8з11655 0.0 1036298
12:00+11з21524 0.0 10351125
15:00+12зсз21465 0.0 10371457
18:00+11зсз225334 0.0 1034467
21:00+6св11725 0.0 103410